Погода в Кинери

Россия / Кировская область     56°47′23″N   50°27′20″E
темп.,
°C
ветер,
м/с
пор.,
м/с
влажн.,
%
обл.,
%
осадки,
мм/ч
давл.,
гПа
погр.,
м
7 мая, пт
пт700:00+9ю498851 0.0 1014154
03:00+9ю41185100 0.0 1014199
06:00+12ю51274100 0.0 1014350
09:00+16ююз71155100 0.0 1014793
12:00+18ююз81247100 0.0 10142030
15:00+17ююз71151100 0.0 10132127
18:00+15ю71356100 0.0 1013720
21:00+13ююз61460100 0.0 1014581
8 мая, сб
сб800:00+10зсз4790100 0.1 1015320
03:00+8ссз3792100 0.7 1017389
06:00+9с4785100 0.1 1018447
09:00+12св3366100 0.1 1018787
12:00+14вюв226354 0.0 10181000
15:00+17ююв33560 0.0 10161095
18:00+16юв36642 0.0 1015221
21:00+11ююв35815 0.0 101587
9 мая, вс
вс900:00+10ююв388385 0.0 1015133
03:00+9ююв41183100 0.0 1014209
06:00+12ююв51276100 0.0 1014353
09:00+18ююв7105441 0.0 1014958
12:00+21ю794654 0.0 10132103
15:00+21ю6844100 0.0 10142436
18:00+18ююв3461100 0.0 101481
21:00+16ююв2266100 0.0 101535
10 мая, пн
пн1000:00+15зюз3569100 0.0 1016112
03:00+11сз3696100 0.0 1018136
06:00+12сз4588100 0.0 1020319
09:00+13сз4579100 0.0 1022589
12:00+11ссз5685100 0.8 1024567
15:00+12с5774100 0.8 1025849
18:00+10с5773100 0.0 10261037
21:00+10с477085 0.0 1028558
11 мая, вт
вт1100:00+6с38905 0.0 1029169
03:00+4с37900 0.0 1029129
06:00+7ссв36742 0.0 1030261
09:00+13ссв464424 0.0 10311204
12:00+16с34365 0.0 10301598
15:00+17с44365 0.0 10291667
18:00+15с245364 0.0 102973
21:00+10св116042 0.0 103010